Location: Stull Observatory
(42.2506°N, 77.7903°W)
Time: 18:23:49
(UTC-04:00)

ISS - All Passes

Search period start: 20 August 2014 00:00
Search period end: 30 August 2014 00:00
Orbit: 413 x 419 km, 51.6° (Epoch: 20 August)

Date Brightness Start Highest point End Pass type
(mag) Time Alt. Az. Time Alt. Az. Time Alt. Az.
20 Aug - 13:54:59 10° SE 13:55:26 10° SE 13:55:52 10° ESE daylight
20 Aug - 15:28:20 10° SW 15:31:39 85° SE 15:34:59 10° ENE daylight
20 Aug - 17:06:01 10° WNW 17:08:43 22° NNW 17:11:26 10° NE daylight
20 Aug - 18:44:07 10° NW 18:46:20 16° N 18:48:33 10° NE daylight
20 Aug - 20:20:46 10° NW 20:23:49 32° NNE 20:26:52 10° E daylight
20 Aug - 21:57:27 10° WNW 22:00:36 39° SW 22:03:44 10° SSE visible
21 Aug - 14:39:59 10° SW 14:43:11 48° SE 14:46:25 10° ENE daylight
21 Aug - 16:17:06 10° W 16:20:03 29° NNW 16:23:00 10° NE daylight
21 Aug - 17:55:23 10° NW 17:57:34 16° N 17:59:46 10° NE daylight
21 Aug - 19:32:21 10° NW 19:35:09 24° NNE 19:37:58 10° ENE daylight
21 Aug - 21:08:50 10° WNW 21:12:09 70° SW 21:15:28 10° SE visible
22 Aug - 13:51:53 10° SSW 13:54:46 28° SE 13:57:40 10° ENE daylight
22 Aug - 15:28:15 10° W 15:31:24 40° NNW 15:34:35 10° NE daylight
22 Aug - 17:06:31 10° NW 17:08:48 17° N 17:11:06 10° NE daylight
22 Aug - 18:43:53 10° NW 18:46:26 20° NNE 18:48:59 10° ENE daylight
22 Aug - 20:20:18 10° NW 20:23:38 69° NNE 20:26:57 10° ESE daylight
22 Aug - 21:58:02 10° W 22:00:00 15° SW 22:01:57 10° SSW visible
23 Aug - 13:04:13 10° S 13:06:23 16° SE 13:08:34 10° E daylight
23 Aug - 14:39:30 10° WSW 14:42:48 62° NNW 14:46:06 10° NE daylight
23 Aug - 16:17:32 10° WNW 16:20:01 19° NNW 16:22:31 10° NE daylight
23 Aug - 17:55:20 10° NW 17:57:40 17° N 18:00:00 10° NE daylight
23 Aug - 19:31:49 10° NW 19:35:02 43° NNE 19:38:14 10° ESE daylight
23 Aug - 21:08:49 10° WNW 21:11:37 25° SW 21:14:24 10° SSE visible
24 Aug - 13:50:55 10° SW 13:54:14 79° SE 13:57:33 10° ENE daylight
24 Aug - 15:28:31 10° WNW 15:31:16 23° NNW 15:34:00 10° NE daylight
24 Aug - 17:06:39 10° NW 17:08:51 16° N 17:11:03 10° NE daylight
24 Aug - 18:43:20 10° NW 18:46:21 30° NNE 18:49:21 10° E daylight
24 Aug - 20:19:59 10° WNW 20:23:10 43° SW 20:26:20 10° SSE visible
25 Aug - 13:02:31 10° SSW 13:05:42 44° SE 13:08:53 10° ENE daylight
25 Aug - 14:39:32 10° W 14:42:31 30° NNW 14:45:31 10° NE daylight
25 Aug - 16:17:49 10° NW 16:20:01 16° N 16:22:13 10° NE daylight
25 Aug - 17:54:51 10° NW 17:57:36 23° NNE 18:00:22 10° ENE daylight
25 Aug - 19:31:18 10° WNW 19:34:38 77° SW 19:37:57 10° SE daylight
26 Aug - 12:14:24 10° SSW 12:17:12 26° SE 12:20:01 10° ENE daylight
26 Aug - 13:50:37 10° W 13:53:48 42° NNW 13:57:00 10° NE daylight
26 Aug - 15:28:51 10° NW 15:31:10 17° N 15:33:29 10° NE daylight
26 Aug - 17:06:18 10° NW 17:08:48 19° NNE 17:11:18 10° ENE daylight
26 Aug - 18:42:42 10° NW 18:46:01 64° NNE 18:49:19 10° ESE daylight
26 Aug - 20:20:16 10° W 20:22:25 16° SW 20:24:33 10° S visible
27 Aug - 11:26:46 10° SSE 11:28:45 15° SE 11:30:45 10° E daylight
27 Aug - 13:01:49 10° WSW 13:05:07 68° NNW 13:08:26 10° NE daylight
27 Aug - 14:39:47 10° WNW 14:42:19 20° NNW 14:44:51 10° NE daylight
27 Aug - 16:17:39 10° NW 16:19:57 17° N 16:22:15 10° NE daylight
27 Aug - 17:54:08 10° NW 17:57:19 41° NNE 18:00:30 10° E daylight
27 Aug - 19:31:04 10° WNW 19:33:57 27° SW 19:36:49 10° SSE daylight
28 Aug - 12:13:10 10° SW 12:16:29 72° SE 12:19:48 10° ENE daylight
28 Aug - 13:50:41 10° WNW 13:53:28 24° NNW 13:56:16 10° NE daylight
28 Aug - 15:28:52 10° NW 15:31:03 16° N 15:33:14 10° NE daylight
28 Aug - 17:05:35 10° NW 17:08:34 29° NNE 17:11:31 10° E daylight
28 Aug - 18:42:11 10° WNW 18:45:24 47° SW 18:48:37 10° SE daylight
29 Aug - 11:24:45 10° SSW 11:27:53 40° SE 11:31:01 10° ENE daylight
29 Aug - 13:01:38 10° W 13:04:39 32° NNW 13:07:41 10° NE daylight
29 Aug - 14:39:56 10° NW 14:42:08 16° N 14:44:20 10° NE daylight
29 Aug - 16:17:01 10° NW 16:19:44 23° NNE 16:22:26 10° ENE daylight
29 Aug - 17:53:27 10° WNW 17:56:47 84° SW 18:00:06 10° SE daylight
29 Aug - 19:32:54 10° SW 19:32:59 10° SW 19:33:04 10° SW daylight
